| time (UTC) | temp C | wind direction | speed KPH | gust KPH | rain 1hr cm | rain 24hr cm | rain mn cm | humidity % | barometer mb |
| 20260905171303 | 22 | 177 | 0.0 | 1.6 | 0.00 | 1.35 | 1.35 | 50 | 1023.4 |
| 20260905170803 | 23 | 275 | 0.0 | 3.2 | 0.00 | 1.35 | 1.35 | 49 | 1023.4 |
| 20260905170304 | 23 | 326 | 3.2 | 12.9 | 0.00 | 1.35 | 1.35 | 48 | 1023.4 |
| 20260905165804 | 23 | 263 | 0.0 | 1.6 | 0.00 | 1.35 | 1.35 | 49 | 1023.0 |
| 20260905165306 | 23 | 297 | 0.0 | 3.2 | 0.00 | 1.35 | 1.35 | 48 | 1023.0 |
| 20260905164804 | 23 | 295 | 1.6 | 9.7 | 0.00 | 1.35 | 1.35 | 47 | 1023.0 |
| 20260905164304 | 24 | 9 | 3.2 | 11.3 | 0.00 | 1.35 | 1.35 | 46 | 1023.0 |
| 20260905163803 | 25 | 6 | 1.6 | 4.8 | 0.00 | 1.35 | 1.35 | 44 | 1023.0 |
| 20260905163304 | 25 | 291 | 1.6 | 8.0 | 0.00 | 1.35 | 1.35 | 44 | 1023.0 |
| 20260905162804 | 25 | 272 | 1.6 | 4.8 | 0.00 | 1.35 | 1.35 | 45 | 1023.0 |
| 20260905162306 | 25 | 334 | 1.6 | 8.0 | 0.00 | 1.35 | 1.35 | 44 | 1023.0 |
| 20260905161804 | 25 | 289 | 1.6 | 11.3 | 0.00 | 1.35 | 1.35 | 43 | 1023.0 |
| 20260905161304 | 25 | 286 | 1.6 | 8.0 | 0.00 | 1.35 | 1.35 | 43 | 1023.0 |
| 20260905160803 | 26 | 353 | 3.2 | 11.3 | 0.00 | 1.35 | 1.35 | 43 | 1023.0 |
| 20260905160304 | 26 | 301 | 3.2 | 11.3 | 0.00 | 1.35 | 1.35 | 41 | 1022.8 |
| 20260905155804 | 26 | 317 | 0.0 | 4.8 | 0.00 | 1.35 | 1.35 | 42 | 1022.8 |
| 20260905155306 | 26 | 304 | 1.6 | 11.3 | 0.00 | 1.35 | 1.35 | 41 | 1022.8 |
| 20260905154804 | 26 | 316 | 0.0 | 4.8 | 0.00 | 1.35 | 1.35 | 42 | 1022.8 |
| 20260905154303 | 26 | 261 | 0.0 | 8.0 | 0.00 | 1.35 | 1.35 | 41 | 1022.8 |
| 20260905153803 | 26 | 283 | 1.6 | 8.0 | 0.00 | 1.35 | 1.35 | 40 | 1022.8 |
| 20260905153304 | 26 | 264 | 0.0 | 9.7 | 0.00 | 1.35 | 1.35 | 41 | 1022.8 |
| 20260905152804 | 26 | 340 | 1.6 | 8.0 | 0.00 | 1.35 | 1.35 | 41 | 1022.6 |
| 20260905152306 | 26 | 301 | 1.6 | 11.3 | 0.00 | 1.35 | 1.35 | 42 | 1022.6 |
| 20260905151804 | 26 | 291 | 3.2 | 8.0 | 0.00 | 1.35 | 1.35 | 42 | 1022.6 |
| 20260905150804 | 27 | 353 | 3.2 | 8.0 | 0.00 | 1.35 | 1.35 | 43 | 1022.6 |
| 20260905150304 | 27 | 306 | 3.2 | 8.0 | 0.00 | 1.35 | 1.35 | 42 | 1022.6 |
| 20260905145804 | 27 | 291 | 3.2 | 9.7 | 0.00 | 1.35 | 1.35 | 43 | 1022.6 |
| 20260905145306 | 27 | 280 | 3.2 | 8.0 | 0.00 | 1.35 | 1.35 | 44 | 1022.5 |
| 20260905144303 | 27 | 256 | 1.6 | 8.0 | 0.00 | 1.35 | 1.35 | 44 | 1022.5 |
| 20260905143803 | 26 | 293 | 3.2 | 14.5 | 0.00 | 1.35 | 1.35 | 43 | 1022.5 |
| 20260905143304 | 27 | 263 | 4.8 | 14.5 | 0.00 | 1.35 | 1.35 | 43 | 1022.5 |
| 20260905142803 | 27 | 310 | 3.2 | 12.9 | 0.00 | 1.35 | 1.35 | 44 | 1022.6 |
| 20260905142305 | 27 | 290 | 1.6 | 12.9 | 0.00 | 1.35 | 1.35 | 45 | 1022.6 |
| 20260905141803 | 27 | 312 | 1.6 | 9.7 | 0.00 | 1.35 | 1.35 | 46 | 1022.6 |
| 20260905141304 | 27 | 259 | 3.2 | 12.9 | 0.00 | 1.35 | 1.35 | 47 | 1022.6 |
| 20260905140803 | 27 | 282 | 1.6 | 16.1 | 0.00 | 1.35 | 1.35 | 45 | 1022.6 |
| 20260905140304 | 27 | 284 | 3.2 | 9.7 | 0.00 | 1.35 | 1.35 | 44 | 1022.5 |
| 20260905135306 | 27 | 309 | 1.6 | 8.0 | 0.00 | 1.35 | 1.35 | 47 | 1022.5 |
| 20260905134804 | 27 | 308 | 0.0 | 16.1 | 0.00 | 1.35 | 1.35 | 48 | 1022.6 |
| 20260905134304 | 26 | 312 | 0.0 | 12.9 | 0.00 | 1.35 | 1.35 | 49 | 1022.6 |
| 20260905133803 | 26 | 284 | 3.2 | 12.9 | 0.00 | 1.35 | 1.35 | 47 | 1022.6 |
| 20260905133303 | 26 | 352 | 1.6 | 8.0 | 0.00 | 1.35 | 1.35 | 49 | 1022.7 |
| 20260905132803 | 26 | 290 | 1.6 | 4.8 | 0.00 | 1.35 | 1.35 | 49 | 1022.7 |
| 20260905132305 | 26 | 281 | 1.6 | 12.9 | 0.00 | 1.35 | 1.35 | 49 | 1022.7 |
| 20260905131804 | 26 | 289 | 1.6 | 9.7 | 0.00 | 1.35 | 1.35 | 50 | 1022.7 |
| 20260905131303 | 26 | 309 | 1.6 | 9.7 | 0.00 | 1.35 | 1.35 | 52 | 1022.7 |
| 20260905130803 | 26 | 300 | 1.6 | 8.0 | 0.00 | 1.35 | 1.35 | 53 | 1022.8 |
| 20260905130303 | 26 | 328 | 0.0 | 9.7 | 0.00 | 1.35 | 1.35 | 52 | 1022.8 |
| 20260905124804 | 25 | 304 | 3.2 | 8.0 | 0.00 | 1.35 | 1.35 | 54 | 1022.8 |
| 20260905124304 | 25 | 301 | 3.2 | 12.9 | 0.00 | 1.35 | 1.35 | 54 | 1022.8 |
| 20260905123804 | 26 | 277 | 1.6 | 8.0 | 0.00 | 1.35 | 1.35 | 56 | 1022.8 |
| 20260905123304 | 25 | 280 | 1.6 | 8.0 | 0.00 | 1.35 | 1.35 | 55 | 1022.8 |
| 20260905122804 | 25 | 4 | 1.6 | 14.5 | 0.00 | 1.35 | 1.35 | 55 | 1022.8 |
| 20260905121803 | 25 | 312 | 0.0 | 12.9 | 0.00 | 1.35 | 1.35 | 58 | 1022.7 |
| 20260905121304 | 25 | 343 | 3.2 | 8.0 | 0.00 | 1.35 | 1.35 | 53 | 1022.8 |
| 20260905120804 | 25 | 274 | 1.6 | 8.0 | 0.00 | 1.35 | 1.35 | 55 | 1022.8 |
| 20260905120304 | 25 | 274 | 0.0 | 4.8 | 0.00 | 1.35 | 1.35 | 54 | 1022.8 |
| 20260905115805 | 25 | 311 | 1.6 | 4.8 | 0.00 | 1.35 | 1.35 | 54 | 1022.8 |
| 20260905114304 | 25 | 328 | 1.6 | 4.8 | 0.00 | 1.35 | 1.35 | 56 | 1022.8 |
| 20260905113804 | 25 | 261 | 1.6 | 20.9 | 0.00 | 1.35 | 1.35 | 54 | 1022.8 |
| 20260905113304 | 25 | 259 | 0.0 | 4.8 | 0.00 | 1.35 | 1.35 | 58 | 1023.0 |
| 20260905112803 | 24 | 263 | 0.0 | 4.8 | 0.00 | 1.35 | 1.35 | 58 | 1023.0 |
| 20260905112305 | 24 | 241 | 0.0 | 3.2 | 0.00 | 1.35 | 1.35 | 58 | 1023.0 |
| 20260905111804 | 25 | 37 | 0.0 | 4.8 | 0.00 | 1.35 | 1.35 | 58 | 1023.0 |
| 20260905111304 | 25 | 242 | 3.2 | 9.7 | 0.00 | 1.35 | 1.35 | 58 | 1023.1 |
| 20260905110803 | 25 | 220 | 0.0 | 11.3 | 0.00 | 1.35 | 1.35 | 60 | 1023.1 |
| 20260905105804 | 25 | 279 | 1.6 | 8.0 | 0.00 | 1.35 | 1.35 | 61 | 1023.1 |
| 20260905105306 | 25 | 294 | 1.6 | 8.0 | 0.00 | 1.35 | 1.35 | 61 | 1023.1 |
| 20260905104804 | 25 | 1 | 1.6 | 14.5 | 0.00 | 1.35 | 1.35 | 61 | 1023.1 |
| 20260905104304 | 24 | 287 | 1.6 | 4.8 | 0.00 | 1.35 | 1.35 | 62 | 1023.0 |
| 20260905103803 | 24 | 344 | 1.6 | 9.7 | 0.00 | 1.35 | 1.35 | 63 | 1023.0 |
| 20260905102804 | 23 | 312 | 1.6 | 4.8 | 0.00 | 1.35 | 1.35 | 65 | 1023.1 |
| 20260905102306 | 22 | 323 | 1.6 | 8.0 | 0.00 | 1.35 | 1.35 | 67 | 1023.1 |
| 20260905101803 | 22 | 288 | 0.0 | 3.2 | 0.00 | 1.35 | 1.35 | 68 | 1023.1 |
| 20260905101304 | 22 | 292 | 0.0 | 8.0 | 0.00 | 1.35 | 1.35 | 67 | 1023.1 |
| 20260905100804 | 23 | 0 | 0.0 | 3.2 | 0.00 | 1.35 | 1.35 | 70 | 1023.1 |
| 20260905100303 | 23 | 287 | 0.0 | 8.0 | 0.00 | 1.35 | 1.35 | 69 | 1023.1 |
| 20260905095305 | 22 | 177 | 0.0 | 4.8 | 0.00 | 1.35 | 1.35 | 73 | 1023.1 |
| 20260905094803 | 22 | 32 | 1.6 | 4.8 | 0.00 | 1.35 | 1.35 | 72 | 1023.0 |
| 20260905094304 | 22 | 310 | 0.0 | 3.2 | 0.00 | 1.35 | 1.35 | 74 | 1023.0 |
| 20260905093804 | 22 | 5 | 0.0 | 9.7 | 0.00 | 1.35 | 1.35 | 73 | 1023.1 |
| 20260905093303 | 21 | 293 | 0.0 | 3.2 | 0.00 | 1.35 | 1.35 | 75 | 1022.4 |
| 20260905092804 | 22 | 259 | 0.0 | 3.2 | 0.00 | 1.35 | 1.35 | 74 | 1022.4 |
| 20260905091803 | 22 | 314 | 0.0 | 4.8 | 0.00 | 1.35 | 1.35 | 74 | 1022.4 |
| 20260905091305 | 21 | 211 | 0.0 | 1.6 | 0.00 | 1.35 | 1.35 | 76 | 1022.4 |
| 20260905090803 | 21 | 326 | 0.0 | 1.6 | 0.00 | 1.35 | 1.35 | 77 | 1022.4 |
| 20260905085804 | 21 | 277 | 0.0 | 4.8 | 0.00 | 1.35 | 1.35 | 80 | 1022.4 |
| 20260905085306 | 20 | 293 | 0.0 | 4.8 | 0.00 | 1.35 | 1.35 | 80 | 1022.4 |
| 20260905084804 | 20 | 252 | 0.0 | 1.6 | 0.00 | 1.35 | 1.35 | 82 | 1022.4 |
| 20260905084304 | 20 | 275 | 0.0 | 8.0 | 0.00 | 1.35 | 1.35 | 83 | 1022.4 |
| 20260905083804 | 20 | 323 | 0.0 | 1.6 | 0.00 | 1.35 | 1.35 | 84 | 1022.4 |
| 20260905083304 | 20 | 334 | 0.0 | 4.8 | 0.00 | 1.35 | 1.35 | 85 | 1022.4 |
| 20260905082804 | 20 | 275 | 0.0 | 4.8 | 0.00 | 1.35 | 1.35 | 85 | 1022.4 |
| 20260905081803 | 19 | 279 | 0.0 | 0.0 | 0.00 | 1.35 | 1.35 | 87 | 1022.4 |
| 20260905081304 | 19 | 358 | 0.0 | 3.2 | 0.00 | 1.35 | 1.35 | 87 | 1022.4 |
| 20260905080804 | 19 | 310 | 1.6 | 4.8 | 0.00 | 1.35 | 1.35 | 86 | 1022.4 |
| 20260905080304 | 18 | 159 | 0.0 | 0.0 | 0.00 | 1.35 | 1.35 | 90 | 1022.4 |
| 20260905075306 | 18 | 138 | 0.0 | 0.0 | 0.00 | 1.35 | 1.35 | 88 | 1022.4 |
| 20260905074804 | 18 | 138 | 0.0 | 0.0 | 0.00 | 1.35 | 1.35 | 90 | 1022.4 |
| 20260905074303 | 18 | 138 | 0.0 | 0.0 | 0.00 | 1.35 | 1.35 | 91 | 1022.4 |
| 20260905073804 | 17 | 138 | 0.0 | 0.0 | 0.00 | 1.35 | 1.35 | 94 | 1022.3 |
| 20260905072804 | 17 | 138 | 0.0 | 0.0 | 0.00 | 1.35 | 1.35 | 94 | 1022.0 |
| 20260905072306 | 17 | 138 | 0.0 | 0.0 | 0.00 | 1.35 | 1.35 | 97 | 1022.0 |
| 20260905071803 | 17 | 138 | 0.0 | 0.0 | 0.00 | 1.35 | 1.35 | 97 | 1022.0 |
| 20260905071303 | 17 | 138 | 0.0 | 0.0 | 0.00 | 1.35 | 1.35 | 97 | 1022.0 |
| 20260905070804 | 17 | 138 | 0.0 | 0.0 | 0.00 | 1.35 | 1.35 | 97 | 1022.0 |
| 20260905070304 | 16 | 138 | 0.0 | 0.0 | 0.00 | 1.35 | 1.35 | 97 | 1022.0 |
| 20260905065803 | 16 | 138 | 0.0 | 0.0 | 0.00 | 1.35 | 1.35 | 98 | 1021.8 |
| 20260905065306 | 16 | 138 | 0.0 | 0.0 | 0.00 | 1.35 | 1.35 | 99 | 1021.8 |
| 20260905064804 | 16 | 138 | 0.0 | 0.0 | 0.00 | 1.35 | 1.35 | 99 | 1021.8 |
| 20260905064304 | 16 | 138 | 0.0 | 0.0 | 0.00 | 1.35 | 1.35 | 99 | 1021.8 |
| 20260905063804 | 16 | 138 | 0.0 | 0.0 | 0.00 | 1.35 | 1.35 | 100 | 1021.8 |
| 20260905063303 | 16 | 138 | 0.0 | 0.0 | 0.00 | 1.35 | 1.35 | 99 | 1021.7 |
| 20260905062804 | 16 | 138 | 0.0 | 0.0 | 0.00 | 1.35 | 1.35 | 99 | 1021.7 |
| 20260905061803 | 16 | 138 | 0.0 | 0.0 | 0.00 | 1.35 | 1.35 | 100 | 1021.7 |
| 20260905061303 | 16 | 138 | 0.0 | 0.0 | 0.00 | 1.35 | 1.35 | 100 | 1021.7 |
| 20260905060804 | 16 | 138 | 0.0 | 0.0 | 0.00 | 1.35 | 1.35 | 100 | 1021.5 |
| 20260905055306 | 15 | 138 | 0.0 | 0.0 | 0.00 | 1.35 | 1.35 | 100 | 1021.2 |
| 20260905053803 | 15 | 138 | 0.0 | 0.0 | 0.00 | 1.35 | 1.35 | 100 | 1021.0 |
| 20260905053304 | 15 | 138 | 0.0 | 0.0 | 0.00 | 1.35 | 1.35 | 100 | 1021.0 |
| 20260905052804 | 15 | 138 | 0.0 | 0.0 | 0.00 | 1.35 | 1.35 | 100 | 1021.0 |
| 20260905051803 | 15 | 138 | 0.0 | 0.0 | 0.00 | 1.35 | 1.35 | 100 | 1021.0 |
| 20260905051304 | 15 | 138 | 0.0 | 0.0 | 0.00 | 1.35 | 1.35 | 100 | 1020.7 |
| 20260905050803 | 15 | 138 | 0.0 | 0.0 | 0.00 | 1.35 | 1.35 | 100 | 1020.7 |
| 20260905050303 | 15 | 138 | 0.0 | 0.0 | 0.00 | 1.35 | 1.35 | 100 | 1020.6 |
| 20260905045306 | 15 | 138 | 0.0 | 0.0 | 0.05 | 1.35 | 1.35 | 99 | 1020.2 |
| 20260905044803 | 15 | 138 | 0.0 | 0.0 | 0.08 | 1.35 | 1.35 | 100 | 1020.2 |
| 20260905044303 | 15 | 138 | 0.0 | 0.0 | 0.13 | 1.35 | 1.35 | 99 | 1020.2 |
| 20260905043804 | 15 | 138 | 0.0 | 0.0 | 0.15 | 1.35 | 1.35 | 100 | 1020.2 |
| 20260905042804 | 15 | 138 | 0.0 | 0.0 | 0.18 | 1.35 | 1.35 | 100 | 1020.2 |
| 20260905042307 | 15 | 137 | 0.0 | 0.0 | 0.20 | 1.35 | 1.35 | 100 | 1020.2 |
| 20260905041804 | 15 | 192 | 0.0 | 0.0 | 0.25 | 1.35 | 1.35 | 100 | 1020.2 |
| 20260905041304 | 15 | 192 | 0.0 | 0.0 | 0.33 | 1.35 | 1.35 | 99 | 1020.7 |
| 20260905040804 | 15 | 192 | 0.0 | 0.0 | 0.36 | 1.35 | 1.35 | 100 | 1020.7 |
| 20260905035803 | 15 | 355 | 0.0 | 0.0 | 0.51 | 1.35 | 1.35 | 100 | 1020.7 |
| 20260905035306 | 15 | 355 | 0.0 | 0.0 | 0.51 | 1.30 | 1.30 | 99 | 1020.7 |
| 20260905034804 | 15 | 355 | 0.0 | 0.0 | 0.51 | 1.27 | 1.27 | 99 | 1020.7 |
| 20260905034304 | 15 | 355 | 0.0 | 0.0 | 0.48 | 1.22 | 1.22 | 99 | 1020.7 |
| 20260905033803 | 15 | 355 | 0.0 | 0.0 | 0.51 | 1.19 | 1.19 | 98 | 1020.5 |
| 20260905033304 | 15 | 355 | 0.0 | 0.0 | 0.69 | 1.17 | 1.17 | 99 | 1020.5 |
| 20260905032306 | 15 | 355 | 0.0 | 0.0 | 0.91 | 1.14 | 1.14 | 98 | 1020.4 |
| 20260905031803 | 15 | 355 | 0.0 | 0.0 | 0.86 | 1.09 | 1.09 | 98 | 1020.4 |
| 20260905031304 | 16 | 355 | 0.0 | 0.0 | 0.84 | 1.02 | 1.02 | 97 | 1020.4 |
| 20260905030804 | 16 | 300 | 0.0 | 0.0 | 0.89 | 0.99 | 0.99 | 97 | 1020.4 |
| 20260905030304 | 16 | 284 | 0.0 | 1.6 | 0.89 | 0.89 | 0.89 | 97 | 1020.4 |
| 20260905025803 | 16 | 315 | 0.0 | 9.7 | 0.84 | 0.84 | 0.84 | 97 | 1020.1 |
| 20260905025306 | 16 | 315 | 0.0 | 9.7 | 0.79 | 0.79 | 0.79 | 97 | 1019.9 |
| 20260905024803 | 16 | 266 | 0.0 | 1.6 | 0.74 | 0.74 | 0.74 | 97 | 1019.9 |
| 20260905024303 | 17 | 15 | 0.0 | 8.0 | 0.74 | 0.74 | 0.74 | 96 | 1019.9 |
| 20260905023804 | 17 | 7 | 3.2 | 11.3 | 0.69 | 0.69 | 0.69 | 97 | 1019.2 |
| 20260905023304 | 17 | 254 | 3.2 | 8.0 | 0.51 | 0.51 | 0.51 | 98 | 1019.2 |
| 20260905022804 | 17 | 277 | 0.0 | 3.2 | 0.25 | 0.25 | 0.25 | 97 | 1019.2 |
| 20260905022306 | 17 | 250 | 0.0 | 1.6 | 0.23 | 0.23 | 0.23 | 97 | 1019.2 |
| 20260905021803 | 17 | 299 | 0.0 | 1.6 | 0.23 | 0.23 | 0.23 | 96 | 1019.2 |
| 20260905020804 | 18 | 341 | 0.0 | 8.0 | 0.10 | 0.10 | 0.10 | 91 | 1019.2 |
| 20260905015804 | 20 | 303 | 0.0 | 4.8 | 0.00 | 0.00 | 0.00 | 82 | 1018.6 |
| 20260905015306 | 20 | 311 | 0.0 | 12.9 | 0.00 | 0.00 | 0.00 | 81 | 1018.6 |
| 20260905014804 | 20 | 324 | 4.8 | 14.5 | 0.00 | 0.00 | 0.00 | 80 | 1018.6 |
| 20260905014304 | 20 | 333 | 3.2 | 16.1 | 0.00 | 0.00 | 0.00 | 79 | 1018.6 |
| 20260905013804 | 20 | 279 | 1.6 | 8.0 | 0.00 | 0.00 | 0.00 | 79 | 1018.6 |
| 20260905013303 | 20 | 288 | 0.0 | 4.8 | 0.00 | 0.00 | 0.00 | 78 | 1018.6 |
| 20260905012803 | 21 | 317 | 0.0 | 9.7 | 0.00 | 0.00 | 0.00 | 76 | 1018.5 |
| 20260905012306 | 21 | 32 | 0.0 | 8.0 | 0.00 | 0.00 | 0.00 | 75 | 1018.5 |
| 20260905011804 | 21 | 44 | 0.0 | 8.0 | 0.00 | 0.00 | 0.00 | 74 | 1018.5 |
| 20260905011304 | 21 | 294 | 0.0 | 4.8 | 0.00 | 0.00 | 0.00 | 74 | 1018.5 |
| 20260905010804 | 21 | 306 | 0.0 | 1.6 | 0.00 | 0.00 | 0.00 | 74 | 1018.5 |
| 20260905010304 | 21 | 260 | 1.6 | 4.8 | 0.00 | 0.00 | 0.00 | 74 | 1018.4 |
| 20260905005804 | 21 | 320 | 0.0 | 8.0 | 0.00 | 0.00 | 0.00 | 74 | 1018.4 |
| 20260905005306 | 21 | 283 | 0.0 | 4.8 | 0.00 | 0.00 | 0.00 | 74 | 1017.5 |
| 20260905004804 | 21 | 342 | 1.6 | 8.0 | 0.00 | 0.00 | 0.00 | 74 | 1017.5 |
| 20260905004304 | 21 | 318 | 0.0 | 4.8 | 0.00 | 0.00 | 0.00 | 74 | 1017.5 |
| 20260905003803 | 21 | 271 | 1.6 | 8.0 | 0.00 | 0.00 | 0.00 | 74 | 1017.5 |
| 20260905003303 | 21 | 288 | 1.6 | 4.8 | 0.00 | 0.00 | 0.00 | 73 | 1017.5 |
| 20260905002804 | 21 | 44 | 0.0 | 1.6 | 0.00 | 0.00 | 0.00 | 73 | 1017.5 |
| 20260905002306 | 21 | 315 | 0.0 | 3.2 | 0.00 | 0.00 | 0.00 | 73 | 1017.5 |
| 20260905001803 | 21 | 266 | 1.6 | 8.0 | 0.00 | 0.00 | 0.00 | 73 | 1017.5 |
| 20260905001304 | 22 | 321 | 0.0 | 8.0 | 0.00 | 0.00 | 0.00 | 73 | 1017.5 |
| 20260905000804 | 22 | 290 | 0.0 | 3.2 | 0.00 | 0.00 | 0.00 | 74 | 1017.5 |
| 20260905000304 | 22 | 56 | 0.0 | 4.8 | 0.00 | 0.00 | 0.00 | 73 | 1017.5 |
| 20260904235803 | 22 | 288 | 1.6 | 8.0 | 0.00 | 0.00 | 0.00 | 72 | 1017.4 |
| 20260904235306 | 22 | 299 | 0.0 | 0.0 | 0.00 | 0.00 | 0.00 | 71 | 1016.8 |
| 20260904234303 | 23 | 310 | 1.6 | 8.0 | 0.00 | 0.00 | 0.00 | 70 | 1016.8 |
| 20260904233804 | 23 | 304 | 0.0 | 1.6 | 0.00 | 0.00 | 0.00 | 70 | 1016.8 |
| 20260904233304 | 22 | 293 | 0.0 | 3.2 | 0.00 | 0.00 | 0.00 | 70 | 1016.8 |
| 20260904232804 | 22 | 338 | 1.6 | 8.0 | 0.00 | 0.00 | 0.00 | 71 | 1016.8 |
| 20260904232306 | 22 | 305 | 0.0 | 1.6 | 0.00 | 0.00 | 0.00 | 71 | 1016.8 |
| 20260904231803 | 22 | 291 | 0.0 | 1.6 | 0.00 | 0.00 | 0.00 | 72 | 1016.8 |
| 20260904231304 | 21 | 276 | 0.0 | 3.2 | 0.00 | 0.00 | 0.00 | 73 | 1016.8 |
| 20260904230804 | 20 | 330 | 0.0 | 4.8 | 0.00 | 0.00 | 0.00 | 76 | 1015.8 |
| 20260904225803 | 20 | 355 | 0.0 | 0.0 | 0.00 | 0.00 | 0.00 | 80 | 1015.8 |
| 20260904225305 | 20 | 355 | 0.0 | 0.0 | 0.00 | 0.00 | 0.00 | 80 | 1015.8 |
| 20260904224303 | 20 | 254 | 0.0 | 0.0 | 0.00 | 0.00 | 0.00 | 81 | 1015.8 |
| 20260904223804 | 20 | 254 | 0.0 | 0.0 | 0.00 | 0.00 | 0.00 | 80 | 1015.8 |
| 20260904223303 | 20 | 254 | 0.0 | 0.0 | 0.00 | 0.00 | 0.00 | 80 | 1015.8 |
| 20260904222803 | 20 | 254 | 0.0 | 0.0 | 0.00 | 0.00 | 0.00 | 78 | 1015.8 |
| 20260904222306 | 20 | 254 | 0.0 | 0.0 | 0.00 | 0.00 | 0.00 | 78 | 1015.8 |
| 20260904221804 | 20 | 254 | 0.0 | 0.0 | 0.00 | 0.00 | 0.00 | 78 | 1015.8 |
| 20260904221304 | 21 | 254 | 0.0 | 0.0 | 0.00 | 0.00 | 0.00 | 77 | 1015.8 |
| 20260904220809 | 21 | 254 | 0.0 | 0.0 | 0.00 | 0.00 | 0.00 | 76 | 1015.8 |
| 20260904220303 | 21 | 254 | 0.0 | 0.0 | 0.00 | 0.00 | 0.00 | 76 | 1015.8 |
| 20260904215804 | 21 | 254 | 0.0 | 0.0 | 0.00 | 0.00 | 0.00 | 75 | 1015.8 |
| 20260904215305 | 21 | 254 | 0.0 | 0.0 | 0.00 | 0.00 | 0.00 | 74 | 1015.8 |
| 20260904214303 | 22 | 254 | 0.0 | 0.0 | 0.00 | 0.00 | 0.00 | 71 | 1015.8 |
| 20260904213804 | 22 | 255 | 0.0 | 0.0 | 0.00 | 0.00 | 0.00 | 70 | 1015.8 |
| 20260904213304 | 23 | 254 | 0.0 | 0.0 | 0.00 | 0.00 | 0.00 | 68 | 1015.7 |
| 20260904212804 | 23 | 255 | 0.0 | 0.0 | 0.00 | 0.00 | 0.00 | 67 | 1015.5 |
| 20260904211804 | 23 | 313 | 0.0 | 0.0 | 0.00 | 0.00 | 0.00 | 66 | 1015.5 |
| 20260904210803 | 23 | 302 | 0.0 | 0.0 | 0.00 | 0.00 | 0.00 | 66 | 1015.5 |
| 20260904210304 | 23 | 211 | 0.0 | 0.0 | 0.00 | 0.00 | 0.00 | 67 | 1015.5 |
| 20260904205804 | 23 | 211 | 0.0 | 0.0 | 0.00 | 0.00 | 0.00 | 66 | 1015.5 |
| 20260904205305 | 22 | 314 | 0.0 | 3.2 | 0.00 | 0.00 | 0.00 | 69 | 1015.5 |
| 20260904204804 | 22 | 329 | 0.0 | 1.6 | 0.00 | 0.00 | 0.00 | 73 | 1015.5 |
| 20260904204303 | 21 | 331 | 0.0 | 0.0 | 0.00 | 0.00 | 0.00 | 75 | 1015.5 |
| 20260904203805 | 21 | 331 | 0.0 | 0.0 | 0.00 | 0.00 | 0.00 | 75 | 1015.5 |
| 20260904203304 | 22 | 331 | 0.0 | 0.0 | 0.00 | 0.00 | 0.00 | 75 | 1015.4 |
| 20260904202803 | 22 | 331 | 0.0 | 0.0 | 0.00 | 0.00 | 0.00 | 75 | 1015.4 |
| 20260904202306 | 22 | 331 | 0.0 | 0.0 | 0.00 | 0.00 | 0.00 | 74 | 1015.4 |
| 20260904201803 | 22 | 331 | 0.0 | 0.0 | 0.00 | 0.00 | 0.00 | 74 | 1015.4 |
| 20260904201304 | 22 | 331 | 0.0 | 0.0 | 0.00 | 0.00 | 0.00 | 72 | 1015.3 |
| 20260904200804 | 22 | 331 | 0.0 | 0.0 | 0.00 | 0.00 | 0.00 | 72 | 1015.3 |
| 20260904200304 | 22 | 331 | 0.0 | 0.0 | 0.00 | 0.00 | 0.00 | 71 | 1015.3 |
| 20260904195804 | 23 | 331 | 0.0 | 0.0 | 0.00 | 0.00 | 0.00 | 70 | 1015.3 |
| 20260904195305 | 23 | 331 | 0.0 | 0.0 | 0.00 | 0.00 | 0.00 | 69 | 1015.2 |
| 20260904194303 | 23 | 331 | 0.0 | 0.0 | 0.00 | 0.00 | 0.00 | 68 | 1015.2 |
| 20260904193804 | 24 | 331 | 0.0 | 0.0 | 0.00 | 0.00 | 0.00 | 66 | 1015.0 |
| 20260904192803 | 25 | 331 | 0.0 | 0.0 | 0.00 | 0.00 | 0.00 | 63 | 1015.0 |
| 20260904192306 | 25 | 331 | 0.0 | 0.0 | 0.00 | 0.00 | 0.00 | 61 | 1014.7 |
| 20260904191803 | 26 | 331 | 0.0 | 3.2 | 0.00 | 0.00 | 0.00 | 59 | 1014.7 |
| 20260904191304 | 26 | 322 | 0.0 | 1.6 | 0.00 | 0.00 | 0.00 | 58 | 1014.7 |
| 20260904190803 | 26 | 322 | 0.0 | 1.6 | 0.00 | 0.00 | 0.00 | 58 | 1014.7 |
| 20260904190304 | 26 | 322 | 0.0 | 1.6 | 0.00 | 0.00 | 0.00 | 58 | 1014.7 |
| 20260904185804 | 26 | 217 | 0.0 | 3.2 | 0.00 | 0.00 | 0.00 | 57 | 1014.7 |
| 20260904184803 | 26 | 291 | 0.0 | 3.2 | 0.00 | 0.00 | 0.00 | 58 | 1014.7 |
| 20260904184304 | 26 | 289 | 1.6 | 3.2 | 0.00 | 0.00 | 0.00 | 58 | 1014.7 |
| 20260904183804 | 26 | 254 | 0.0 | 0.0 | 0.00 | 0.00 | 0.00 | 58 | 1014.5 |
| 20260904182804 | 26 | 277 | 0.0 | 1.6 | 0.00 | 0.00 | 0.00 | 57 | 1014.5 |
| 20260904182306 | 27 | 277 | 0.0 | 3.2 | 0.00 | 0.00 | 0.00 | 55 | 1014.5 |
| 20260904181304 | 27 | 299 | 0.0 | 1.6 | 0.00 | 0.00 | 0.00 | 54 | 1014.4 |
| 20260904180804 | 27 | 240 | 0.0 | 1.6 | 0.00 | 0.00 | 0.00 | 54 | 1014.4 |
| 20260904180303 | 27 | 329 | 0.0 | 3.2 | 0.00 | 0.00 | 0.00 | 52 | 1014.1 |
| 20260904175804 | 28 | 315 | 0.0 | 3.2 | 0.00 | 0.00 | 0.00 | 52 | 1014.1 |
| 20260904175305 | 28 | 269 | 1.6 | 4.8 | 0.00 | 0.00 | 0.00 | 50 | 1014.1 |
| 20260904174804 | 28 | 287 | 1.6 | 4.8 | 0.00 | 0.00 | 0.00 | 51 | 1013.8 |
| 20260904174303 | 28 | 284 | 1.6 | 8.0 | 0.00 | 0.00 | 0.00 | 51 | 1013.8 |
| 20260904173804 | 28 | 309 | 1.6 | 3.2 | 0.00 | 0.00 | 0.00 | 51 | 1013.8 |
| 20260904173303 | 28 | 269 | 1.6 | 8.0 | 0.00 | 0.00 | 0.00 | 50 | 1013.8 |
| 20260904172804 | 29 | 7 | 1.6 | 8.0 | 0.00 | 0.00 | 0.00 | 50 | 1013.8 |
| 20260904172305 | 29 | 268 | 0.0 | 4.8 | 0.00 | 0.00 | 0.00 | 50 | 1013.8 |
| 20260904171804 | 29 | 307 | 1.6 | 8.0 | 0.00 | 0.00 | 0.00 | 50 | 1013.8 |